When you browse on this site, cookies collect data to enhance your experience and personalize the content and advertising you see.
Visit our Privacy Policy to learn more. By continuing to use the site, you agree to this use of cookies and data.
  • In Lithuania
  • List of Countries
  • For 7 days
  • Water Temperature
  • Weather Map
  • Weather Widgets
  • user-avatar
    Login

    Hourly Weather Vatican

    Today, 21 February, Friday

    Time Temperature Precipitation Wind Pressure Humidity
    00:00 +9°C° 0 mm 2 mps 766 mmHg 62%
    01:00 +9°C° 0 mm 2 mps 766 mmHg 63%
    02:00 +9°C° 0 mm 2 mps 766 mmHg 65%
    03:00 +8°C° 0 mm 2 mps 766 mmHg 66%
    04:00 +8°C° 0 mm 2 mps 766 mmHg 68%
    05:00 +8°C° 0 mm 2 mps 766 mmHg 68%
    06:00 +8°C° 0 mm 2 mps 766 mmHg 69%
    07:00 +8°C° 0 mm 2 mps 766 mmHg 69%
    14:00 +15°C° 0 mm 1 mps 766 mmHg 47%
    15:00 +15°C° 0 mm 1 mps 766 mmHg 49%
    16:00 +15°C° 0 mm 2 mps 766 mmHg 51%
    17:00 +14°C° 0 mm 2 mps 766 mmHg 57%
    18:00 +13°C° 0 mm 2 mps 766 mmHg 63%
    19:00 +12°C° 0 mm 2 mps 767 mmHg 69%
    20:00 +12°C° 0 mm 2 mps 767 mmHg 71%
    21:00 +12°C° 0 mm 2 mps 767 mmHg 72%
    22:00 +10°C° 0 mm 2 mps 768 mmHg 73%
    23:00 +10°C° 0 mm 2 mps 768 mmHg 72%

    Tomorrow, 22 February, Saturday

    Time Temperature Precipitation Wind Pressure Humidity
    00:00 +10°C° 0 mm 2 mps 768 mmHg 71%
    01:00 +9°C° 0 mm 2 mps 768 mmHg 70%
    02:00 +9°C° 0 mm 2 mps 768 mmHg 70%
    03:00 +9°C° 0 mm 2 mps 768 mmHg 69%
    04:00 +9°C° 0 mm 2 mps 768 mmHg 68%
    05:00 +9°C° 0 mm 2 mps 769 mmHg 67%
    06:00 +8°C° 0 mm 2 mps 769 mmHg 67%
    07:00 +8°C° 0 mm 2 mps 769 mmHg 66%
    08:00 +10°C° 0 mm 2 mps 770 mmHg 61%
    09:00 +12°C° 0 mm 2 mps 770 mmHg 56%
    10:00 +14°C° 0 mm 2 mps 770 mmHg 51%
    11:00 +15°C° 0 mm 1 mps 771 mmHg 50%
    12:00 +15°C° 0 mm 1 mps 771 mmHg 48%
    13:00 +16°C° 0 mm 1 mps 771 mmHg 46%
    14:00 +16°C° 0 mm 2 mps 771 mmHg 49%
    15:00 +16°C° 0 mm 3 mps 770 mmHg 52%
    16:00 +15°C° 0 mm 4 mps 770 mmHg 55%
    17:00 +14°C° 0 mm 4 mps 770 mmHg 58%
    18:00 +13°C° 0 mm 3 mps 770 mmHg 61%
    19:00 +12°C° 0 mm 3 mps 771 mmHg 64%
    20:00 +12°C° 0 mm 3 mps 771 mmHg 66%
    21:00 +11°C° 0 mm 3 mps 771 mmHg 67%
    22:00 +11°C° 0 mm 3 mps 772 mmHg 69%
    23:00 +11°C° 0 mm 3 mps 772 mmHg 71%

    Day after tomorrow, 23 February, Sunday

    Time Temperature Precipitation Wind Pressure Humidity
    00:00 +10°C° 0 mm 3 mps 772 mmHg 72%
    01:00 +10°C° 0 mm 3 mps 772 mmHg 73%
    02:00 +10°C° 0 mm 2 mps 772 mmHg 74%
    03:00 +9°C° 0 mm 2 mps 771 mmHg 75%
    04:00 +9°C° 0 mm 2 mps 771 mmHg 75%
    05:00 +9°C° 0 mm 2 mps 771 mmHg 76%
    06:00 +9°C° 0 mm 2 mps 771 mmHg 77%
    07:00 +9°C° 0 mm 2 mps 771 mmHg 77%
    08:00 +10°C° 0 mm 2 mps 771 mmHg 73%
    09:00 +12°C° 0 mm 2 mps 771 mmHg 68%
    10:00 +14°C° 0 mm 2 mps 771 mmHg 64%
    11:00 +15°C° 0 mm 2 mps 771 mmHg 63%
    12:00 +14°C° 0 mm 3 mps 771 mmHg 62%
    13:00 +16°C° 0 mm 3 mps 770 mmHg 61%
    14:00 +15°C° 0 mm 4 mps 770 mmHg 62%
    15:00 +15°C° 0 mm 4 mps 769 mmHg 64%
    16:00 +15°C° 0 mm 5 mps 769 mmHg 66%
    17:00 +14°C° 0 mm 5 mps 769 mmHg 70%
    18:00 +14°C° 0 mm 5 mps 769 mmHg 74%
    19:00 +13°C° 0 mm 5 mps 769 mmHg 78%
    20:00 +13°C° 0 mm 5 mps 769 mmHg 77%
    21:00 +13°C° 0 mm 5 mps 769 mmHg 77%
    22:00 +13°C° 0 mm 5 mps 769 mmHg 76%
    23:00 +13°C° 0 mm 4 mps 769 mmHg 77%

    24 February, Monday

    Time Temperature Precipitation Wind Pressure Humidity
    00:00 +13°C° 0 mm 4 mps 768 mmHg 77%
    01:00 +13°C° 0 mm 4 mps 768 mmHg 77%
    02:00 +13°C° 0 mm 4 mps 768 mmHg 79%
    03:00 +13°C° 0 mm 4 mps 767 mmHg 80%
    04:00 +12°C° 0 mm 4 mps 767 mmHg 82%
    05:00 +12°C° 0 mm 4 mps 767 mmHg 83%
    06:00 +12°C° 0 mm 3 mps 766 mmHg 84%
    07:00 +12°C° 0 mm 3 mps 766 mmHg 85%
    08:00 +13°C° 0 mm 3 mps 766 mmHg 81%
    09:00 +15°C° 0 mm 2 mps 766 mmHg 76%
    10:00 +16°C° 0 mm 2 mps 766 mmHg 72%
    11:00 +16°C° 0 mm 2 mps 766 mmHg 69%
    12:00 +17°C° 0 mm 2 mps 766 mmHg 65%
    13:00 +18°C° 0 mm 3 mps 765 mmHg 62%
    14:00 +18°C° 0 mm 3 mps 765 mmHg 64%
    15:00 +17°C° 0 mm 3 mps 765 mmHg 67%
    16:00 +17°C° 0 mm 3 mps 765 mmHg 69%
    17:00 +16°C° 0 mm 3 mps 765 mmHg 74%
    18:00 +14°C° 0 mm 3 mps 765 mmHg 78%
    19:00 +13°C° 0 mm 3 mps 765 mmHg 82%
    20:00 +13°C° 0 mm 3 mps 765 mmHg 83%
    21:00 +13°C° 0 mm 3 mps 765 mmHg 84%
    22:00 +13°C° 0 mm 3 mps 765 mmHg 86%
    23:00 +13°C° 0 mm 3 mps 765 mmHg 85%

    25 February, Tuesday

    Time Temperature Precipitation Wind Pressure Humidity
    00:00 +13°C° 0 mm 3 mps 765 mmHg 85%
    01:00 +13°C° 0 mm 3 mps 765 mmHg 84%
    02:00 +13°C° 0.1 mm 3 mps 764 mmHg 84%
    03:00 +13°C° 0.1 mm 3 mps 764 mmHg 84%
    04:00 +13°C° 0.1 mm 3 mps 764 mmHg 84%
    05:00 +13°C° 0.1 mm 3 mps 764 mmHg 84%
    06:00 +13°C° 0.1 mm 4 mps 764 mmHg 84%
    07:00 +13°C° 0.1 mm 4 mps 763 mmHg 84%
    08:00 +13°C° 0 mm 4 mps 763 mmHg 82%
    09:00 +13°C° 0 mm 4 mps 763 mmHg 80%
    10:00 +14°C° 0 mm 4 mps 763 mmHg 78%
    11:00 +14°C° 0 mm 5 mps 763 mmHg 75%
    12:00 +15°C° 0 mm 5 mps 762 mmHg 72%
    13:00 +16°C° 0 mm 5 mps 762 mmHg 69%
    14:00 +16°C° 0 mm 5 mps 761 mmHg 69%
    15:00 +15°C° 0 mm 5 mps 761 mmHg 70%
    16:00 +15°C° 0 mm 5 mps 760 mmHg 70%
    17:00 +15°C° 0 mm 6 mps 760 mmHg 74%
    18:00 +14°C° 0 mm 6 mps 760 mmHg 79%
    19:00 +12°C° 0 mm 7 mps 760 mmHg 83%
    20:00 +13°C° 0 mm 6 mps 760 mmHg 84%
    21:00 +13°C° 0 mm 6 mps 760 mmHg 85%
    22:00 +11°C° 0 mm 6 mps 760 mmHg 86%
    23:00 +13°C° 0 mm 5 mps 759 mmHg 84%

    26 February, Wednesday

    Time Temperature Precipitation Wind Pressure Humidity
    00:00 +13°C° 0 mm 5 mps 759 mmHg 83%
    01:00 +13°C° 0 mm 4 mps 758 mmHg 82%
    02:00 +13°C° 0.1 mm 5 mps 758 mmHg 82%
    03:00 +13°C° 0.1 mm 5 mps 757 mmHg 82%
    04:00 +13°C° 0.1 mm 5 mps 757 mmHg 83%
    05:00 +13°C° 0 mm 5 mps 757 mmHg 83%
    06:00 +12°C° 0 mm 4 mps 757 mmHg 83%
    07:00 +12°C° 0 mm 4 mps 757 mmHg 83%
    08:00 +13°C° 0 mm 4 mps 757 mmHg 76%
    09:00 +14°C° 0 mm 5 mps 757 mmHg 68%
    10:00 +15°C° 0 mm 5 mps 758 mmHg 60%
    11:00 +16°C° 0 mm 5 mps 758 mmHg 56%
    12:00 +16°C° 0 mm 5 mps 757 mmHg 51%
    13:00 +17°C° 0 mm 5 mps 757 mmHg 47%
    14:00 +17°C° 0 mm 5 mps 757 mmHg 49%
    15:00 +16°C° 0 mm 5 mps 757 mmHg 51%
    16:00 +16°C° 0 mm 5 mps 757 mmHg 53%
    17:00 +15°C° 0 mm 5 mps 757 mmHg 59%
    18:00 +14°C° 0 mm 5 mps 757 mmHg 65%
    19:00 +13°C° 0 mm 5 mps 758 mmHg 72%
    20:00 +13°C° 0 mm 6 mps 758 mmHg 71%
    21:00 +12°C° 0 mm 7 mps 758 mmHg 71%
    22:00 +11°C° 0 mm 8 mps 758 mmHg 71%
    23:00 +12°C° 0 mm 10 mps 758 mmHg 68%
    Show more